Total_Precipitation_Accumulation
0.00 0.01 0.04 0.03 0.01 0.01 0.02 0.03 0.05 0.05 0.06 0.08 0.10 0.10 0.07 0.05 0.04 0.03 0.04 0.03 0.03 0.04 0.04 0.04 0.06 0.06 0.07 0.07 0.05 0.02 0.02 0.02 0.02 0.03 0.03 0.04 0.06 0.08 0.09 0.07 0.13 0.12 0.07
0.00 0.01 0.03 0.02 0.02 0.02 0.02 0.03 0.04 0.04 0.04 0.06 0.08 0.09 0.06 0.04 0.03 0.03 0.04 0.06 0.05 0.04 0.04 0.05 0.04 0.04 0.06 0.06 0.04 0.02 0.01 0.01 0.01 0.02 0.02 0.03 0.06 0.10 0.11 0.07 0.13 0.11 0.05
0.00 0.01 0.02 0.02 0.02 0.02 0.02 0.03 0.05 0.04 0.03 0.03 0.05 0.05 0.04 0.03 0.03 0.02 0.03 0.09 0.12 0.09 0.06 0.03 0.03 0.03 0.03 0.03 0.02 0.01 0.01 0.01 0.01 0.02 0.03 0.07 0.04 0.08 0.13 0.07 0.05 0.03 0.03
0.00 0.00 0.01 0.02 0.02 0.01 0.01 0.02 0.03 0.04 0.04 0.06 0.07 0.06 0.05 0.05 0.04 0.03 0.04 0.07 0.09 0.08 0.07 0.03 0.02 0.02 0.02 0.01 0.01 0.01 0.02 0.01 0.01 0.02 0.08 0.23 0.13 0.08 0.13 0.10 0.08 0.05 0.03
0.00 0.00 0.02 0.02 0.01 0.01 0.01 0.01 0.03 0.04 0.05 0.08 0.09 0.07 0.07 0.07 0.06 0.05 0.05 0.06 0.07 0.04 0.04 0.04 0.03 0.03 0.02 0.01 0.01 0.02 0.02 0.02 0.01 0.02 0.06 0.18 0.20 0.13 0.13 0.17 0.15 0.14 0.10
0.00 0.00 0.02 0.02 0.01 0.01 0.01 0.02 0.02 0.03 0.04 0.06 0.06 0.05 0.06 0.06 0.07 0.07 0.06 0.08 0.10 0.09 0.06 0.06 0.06 0.07 0.05 0.03 0.02 0.02 0.02 0.03 0.02 0.03 0.04 0.06 0.19 0.20 0.18 0.26 0.30 0.30 0.24
0.00 0.01 0.02 0.02 0.01 0.01 0.01 0.02 0.02 0.03 0.03 0.04 0.04 0.03 0.03 0.04 0.05 0.05 0.06 0.06 0.07 0.10 0.09 0.10 0.10 0.08 0.09 0.08 0.05 0.04 0.03 0.04 0.04 0.02 0.02 0.05 0.14 0.13 0.22 0.44 0.60 0.56 0.44
0.00 0.01 0.02 0.02 0.02 0.01 0.01 0.02 0.02 0.02 0.02 0.02 0.02 0.02 0.02 0.02 0.03 0.04 0.05 0.04 0.03 0.03 0.05 0.08 0.12 0.11 0.09 0.13 0.11 0.07 0.06 0.07 0.06 0.04 0.03 0.07 0.11 0.13 0.28 0.55 0.72 0.70 0.60
0.00 0.00 0.01 0.01 0.02 0.02 0.01 0.01 0.02 0.02 0.02 0.02 0.02 0.02 0.01 0.01 0.02 0.02 0.02 0.02 0.01 0.02 0.03 0.04 0.05 0.07 0.08 0.11 0.15 0.14 0.11 0.10 0.11 0.16 0.09 0.17 0.21 0.27 0.50 0.70 0.84 0.82 0.76
0.01 0.01 0.01 0.01 0.01 0.01 0.01 0.02 0.02 0.02 0.02 0.02 0.02 0.03 0.03 0.02 0.02 0.02 0.02 0.02 0.02 0.03 0.04 0.05 0.06 0.06 0.09 0.11 0.13 0.20 0.24 0.17 0.07 0.09 0.20 0.18 0.18 0.42 0.75 0.90 1.02 1.05 0.99
0.02 0.01 0.01 0.01 0.01 0.01 0.01 0.01 0.02 0.02 0.03 0.02 0.03 0.04 0.04 0.04 0.05 0.08 0.06 0.09 0.11 0.14 0.17 0.20 0.22 0.21 0.21 0.16 0.19 0.34 0.36 0.17 0.10 0.11 0.16 0.14 0.21 0.54 0.90 1.08 1.15 1.19 1.18
0.01 0.02 0.02 0.01 0.01 0.02 0.02 0.02 0.02 0.02 0.04 0.04 0.07 0.09 0.11 0.13 0.13 0.09 0.10 0.18 0.34 0.46 0.50 0.63 0.73 0.58 0.45 0.45 0.85 0.88 0.31 0.19 0.23 0.17 0.19 0.15 0.30 0.66 1.00 1.26 1.34 1.31 1.28
0.02 0.01 0.02 0.02 0.03 0.04 0.05 0.06 0.05 0.04 0.07 0.08 0.10 0.17 0.22 0.19 0.17 0.13 0.15 0.27 0.49 0.57 0.59 0.89 1.04 0.75 0.81 1.01 1.05 0.92 0.44 0.36 0.31 0.27 0.31 0.35 0.48 0.85 1.23 1.47 1.60 1.52 1.43
0.05 0.03 0.04 0.04 0.06 0.10 0.11 0.09 0.07 0.06 0.07 0.09 0.12 0.17 0.25 0.30 0.29 0.30 0.34 0.41 0.53 0.58 0.77 0.85 1.00 0.92 1.01 1.00 0.93 0.82 0.72 0.77 0.60 0.65 0.77 0.65 0.63 0.88 1.38 1.63 1.76 1.74 1.52
0.13 0.12 0.10 0.09 0.11 0.12 0.14 0.17 0.14 0.11 0.12 0.14 0.17 0.22 0.32 0.43 0.46 0.51 0.51 0.57 0.49 0.56 0.76 0.96 0.89 1.05 1.12 1.03 0.93 0.88 0.89 0.87 0.76 0.88 0.93 0.87 0.89 1.03 1.56 1.94 1.97 1.90 1.71
0.16 0.17 0.17 0.18 0.21 0.26 0.28 0.30 0.29 0.29 0.29 0.30 0.34 0.41 0.50 0.63 0.80 0.81 0.72 0.74 0.66 0.72 0.91 1.09 1.04 1.21 1.10 1.09 0.93 0.96 0.90 0.86 0.81 0.96 1.02 0.98 0.99 1.11 1.38 1.78 2.04 2.05 1.90
0.24 0.24 0.29 0.43 0.56 0.60 0.60 0.62 0.65 0.72 0.69 0.65 0.74 0.83 0.88 0.90 1.02 0.99 0.87 0.81 0.91 1.03 1.18 1.15 1.19 1.35 1.21 1.12 1.01 1.00 0.87 0.76 0.74 0.88 0.97 1.05 0.98 0.98 1.22 1.57 1.89 1.90 1.81
0.43 0.47 0.58 0.81 1.00 1.09 1.07 1.07 1.14 1.14 1.09 1.13 1.19 1.25 1.25 1.18 1.18 1.28 1.07 0.95 1.20 1.29 1.34 1.41 1.38 1.39 1.37 1.27 1.17 0.98 0.88 0.81 0.71 0.75 0.79 0.92 0.97 0.77 0.96 1.37 1.51 1.45 1.53
0.89 1.05 1.24 1.26 1.32 1.47 1.68 1.80 1.67 1.56 1.43 1.39 1.38 1.36 1.33 1.36 1.37 1.55 1.38 1.35 1.47 1.59 1.51 1.42 1.62 1.67 1.55 1.46 1.26 1.15 0.88 0.78 0.75 0.72 0.69 0.73 0.83 0.82 0.76 0.88 1.18 1.19 1.35
1.48 1.72 1.74 1.70 1.89 2.33 2.62 2.51 2.18 1.82 1.62 1.52 1.42 1.36 1.40 1.53 1.61 1.83 1.63 1.60 1.72 1.83 1.81 1.82 1.88 1.87 1.75 1.73 1.43 1.16 0.93 0.74 0.73 0.69 0.63 0.65 0.66 0.61 0.61 0.64 0.74 0.72 0.83
1.86 1.97 2.06 2.31 2.68 2.86 2.81 2.75 2.66 2.30 1.97 1.60 1.37 1.35 1.46 1.51 1.64 1.88 1.67 1.89 2.04 2.02 2.05 2.03 2.12 1.98 1.84 1.96 1.75 1.27 0.85 0.63 0.51 0.47 0.49 0.51 0.47 0.53 0.62 0.75 0.83 0.89 0.85
1.97 2.19 2.46 2.74 3.03 2.92 3.02 3.21 3.09 2.81 2.23 1.87 1.67 1.62 1.65 1.66 1.66 1.76 1.96 2.02 2.11 2.08 2.05 2.03 2.04 1.84 1.66 1.87 1.83 1.58 1.08 0.75 0.55 0.48 0.55 0.53 0.54 0.56 0.57 0.67 0.83 0.99 0.95
2.18 2.53 2.77 2.95 2.99 2.92 3.06 3.17 2.86 2.61 2.16 2.00 1.97 1.85 1.79 1.87 1.86 1.91 2.03 2.09 1.97 1.91 1.85 1.92 1.90 1.77 1.61 1.66 1.80 1.74 1.36 0.98 0.70 0.52 0.56 0.60 0.75 0.75 0.60 0.58 0.60 0.60 0.64
2.26 2.63 2.95 2.93 2.89 2.84 2.93 2.97 2.79 2.50 2.22 2.11 2.12 1.92 1.75 1.73 1.74 1.77 1.79 1.91 1.89 1.83 1.69 1.64 1.65 1.68 1.62 1.49 1.62 1.68 1.58 1.36 1.11 0.70 0.51 0.52 0.67 0.73 0.68 0.59 0.55 0.54 0.60
2.01 2.32 2.57 2.75 2.79 2.71 2.66 2.61 2.57 2.38 2.13 2.00 1.92 1.80 1.75 1.78 1.69 1.64 1.68 1.80 1.81 1.71 1.60 1.64 1.70 1.66 1.53 1.41 1.44 1.50 1.61 1.59 1.41 1.11 0.72 0.60 0.60 0.57 0.64 0.62 0.53 0.51 0.61
1.82 2.08 2.24 2.37 2.41 2.37 2.27 2.22 2.23 2.17 2.12 1.97 1.82 1.82 1.84 1.78 1.64 1.56 1.55 1.62 1.64 1.59 1.53 1.54 1.59 1.55 1.45 1.44 1.45 1.43 1.42 1.40 1.41 1.39 1.06 0.85 0.72 0.51 0.50 0.52 0.54 0.54 0.59